THOR ABLESTAR DEB, 3748

Orbit data source: Space-Track

THOR ABLESTAR DEB, 3748 is space debris in LEO originally from a launch on Thu, 29 Jun 1961 UTC launched from the Air Force Eastern Test Range (AFETR). Debris objects in space refer to the collection of defunct objects orbiting the Earth. Examples of debris include non-operational satellites, rocket bodies, and fragments generated from explosions, collisions, or faulty payload assembly.

Loading next visibility...
Identifier
3748, 1961-015JD
Orbit
LEO
Country
Flag of USUS
Related business
Manufacturer
Unknown
Mission
Spacecraft
Bus & Motor
Unknown
Mass
Unknown
Launch date (UTC)
1961-06-29 (65 years ago)
Launch vehicle
Unknown
Launch site
Air Force Eastern Test Range (AFETR)
Object type
Payload
Rocket body
Debris
Shape & HBR
Unknown shape, 0.1 m
Radar Cross Section
Small (<0.1 m²)

Expand to show TLE details & history
Last TLE update: 19 hours ago

TLE from 19 hours ago
0 THOR ABLESTAR DEB
1  3748U 61015JD  26138.27104288  .00000317  00000-0  89307-3 0  9998
2  3748  67.7427 206.9260 0532857 306.2070 111.8004 12.80118014689992
Epoch: 2026-05-18T06:30Z
TLE epoch observation values (Epoch: 2026-05-18T06:30:18.104Z)
Latitude
56.04959°
Longitude
-89.38689°
Altitude
1,520.65 km
Speed
7.031 km/s
True Right ascension
16h 16m 36s
True Declination
55° 54' 20"
Sunlit
Object was in daylight at epoch
Visualization orbit readout
Latitude
Unknown
Longitude
Unknown
Altitude
Unknown
Speed
Unknown
Apparent Right ascension
Unknown
Apparent Declination
Unknown
Sunlit
N/A
Visualization observer readout
Local Sidereal Time
10:13:56
Azimuth
Unknown
Elevation
Unknown
Doppler factor
Unknown
Orbital elements
Apogee altitude
1,750.601 km
Perigee altitude
928.136 km
Semi-major axis
7,717.506 km
Eccentricity
0.05329
Inclination
67.7427°
RAAN
206.926°
Arg. of periapsis
306.207°
True anomaly
117.32428°
Mean anomaly
111.8004°
Eccentric anomaly
114.57685°
Mean motion
3.20131 °/min
Orbital period
112.45 mins
BSTAR
0.00089307
Loading maneuver chart data...
Computing Atmospheric mass density...

Documentation

Showing up to 5 results
|